This is the latest recevied weather packets stored in our database for station/object KD2SIG. If no packets are shown the sender has not sent any weather packets the latest 10 day(s).
| Time | Temp. | Humidity | Pressure | Rain* | Wind** | Luminosity | Snow |
|---|---|---|---|---|---|---|---|
| 1777732318 | 5.56° C | 81% | 1014.5 hPa | 0 mm | - | 233 W/m² | - |
| 1777732015 | 5.56° C | 81% | 1014.4 hPa | 0 mm | - | 216 W/m² | - |
| 1777731712 | 5.56° C | 81% | 1014.6 hPa | 0 mm | - | 187 W/m² | - |
| 1777731409 | 5.56° C | 81% | 1014.3 hPa | 0 mm | - | 224 W/m² | - |
| 1777731107 | 5.56° C | 80% | 1014.8 hPa | 0 mm | - | 220 W/m² | - |
| 1777730805 | 5.56° C | 79% | 1014.7 hPa | 0 mm | - | 294 W/m² | - |
| 1777730502 | 5.56° C | 79% | 1014.4 hPa | 0 mm | - | 249 W/m² | - |
| 1777730197 | 6.11° C | 80% | 1014.4 hPa | 0 mm | - | 370 W/m² | - |
| 1777729895 | 5.56° C | 81% | 1014.7 hPa | 0 mm | - | 413 W/m² | - |
| 1777729591 | 5° C | 82% | 1014.4 hPa | 0 mm | - | 337 W/m² | - |
| 1777729288 | 5° C | 82% | 1014.5 hPa | 0 mm | - | 256 W/m² | - |
| 1777728985 | 5.56° C | 81% | 1014.5 hPa | 0 mm | - | 283 W/m² | - |
| 1777728681 | 5° C | 82% | 1014.4 hPa | 0 mm | - | 323 W/m² | - |
| 1777728378 | 5.56° C | 82% | 1014.5 hPa | 0 mm | - | 247 W/m² | - |
| 1777728076 | 5.56° C | 83% | 1014.4 hPa | 0 mm | - | 270 W/m² | - |
| 1777727772 | 5.56° C | 84% | 1014.6 hPa | 0 mm | - | 243 W/m² | - |
| 1777727469 | 5.56° C | 84% | 1014.6 hPa | 0 mm | - | 226 W/m² | - |
| 1777727167 | 5.56° C | 85% | 1014.7 hPa | 0 mm | - | 343 W/m² | - |
| 1777726865 | 5° C | 84% | 1014.5 hPa | 0 mm | - | 521 W/m² | - |
| 1777726560 | 5° C | 85% | 1014.5 hPa | 0 mm | - | 281 W/m² | - |
| 1777726258 | 5° C | 86% | 1014.5 hPa | 0 mm | - | 285 W/m² | - |
| 1777725954 | 5° C | 87% | 1014.4 hPa | 0 mm | - | 257 W/m² | - |
| 1777725652 | 5° C | 88% | 1014.4 hPa | 0 mm | - | 245 W/m² | - |
| 1777725350 | 5° C | 89% | 1014.3 hPa | 0 mm | - | 206 W/m² | - |
| 1777725046 | 4.44° C | 90% | 1014.7 hPa | 0 mm | - | 173 W/m² | - |
* Rain latest hour (hover to see other rain measurements)
** Current wind speed in m/s (hover to see current wind gust speed)